EN

Hourly Weather Topolek

Today, 11 April, Sunday

Time Temperature Precipitation Wind Pressure Humidity
00:00 +12°C° 0 mm 5 mps 760 mmHg 77%
01:00 +12°C° 0 mm 4 mps 761 mmHg 77%
02:00 +11°C° 0 mm 4 mps 761 mmHg 76%
03:00 +10°C° 0 mm 4 mps 762 mmHg 83%
04:00 +10°C° 0 mm 4 mps 762 mmHg 82%
05:00 +10°C° 0 mm 4 mps 762 mmHg 82%
06:00 +10°C° 0 mm 3 mps 763 mmHg 82%
07:00 +11°C° 0 mm 4 mps 763 mmHg 78%
08:00 +13°C° 0 mm 4 mps 763 mmHg 74%
09:00 +14°C° 0 mm 5 mps 764 mmHg 70%
10:00 +16°C° 0 mm 5 mps 764 mmHg 65%
11:00 +17°C° 0 mm 5 mps 764 mmHg 59%
12:00 +20°C° 0 mm 5 mps 764 mmHg 54%
13:00 +20°C° 0 mm 4 mps 764 mmHg 52%
14:00 +21°C° 0 mm 4 mps 765 mmHg 50%
15:00 +22°C° 0 mm 4 mps 765 mmHg 47%
16:00 +20°C° 0 mm 4 mps 765 mmHg 53%
17:00 +19°C° 0 mm 4 mps 765 mmHg 58%
18:00 +17°C° 0 mm 4 mps 765 mmHg 63%
19:00 +15°C° 0 mm 4 mps 765 mmHg 67%
20:00 +15°C° 0 mm 4 mps 766 mmHg 70%
21:00 +14°C° 0 mm 3 mps 766 mmHg 73%
22:00 +13°C° 0 mm 3 mps 766 mmHg 74%
23:00 +12°C° 0 mm 3 mps 766 mmHg 75%

Tomorrow, 12 April, Monday

Time Temperature Precipitation Wind Pressure Humidity
00:00 +12°C° 0 mm 3 mps 767 mmHg 75%
01:00 +11°C° 0 mm 3 mps 767 mmHg 75%
02:00 +11°C° 0 mm 3 mps 767 mmHg 74%
03:00 +10°C° 0 mm 3 mps 768 mmHg 74%
04:00 +10°C° 0 mm 3 mps 768 mmHg 74%
05:00 +10°C° 0 mm 3 mps 768 mmHg 74%
06:00 +10°C° 0 mm 3 mps 768 mmHg 75%
07:00 +12°C° 0 mm 3 mps 769 mmHg 69%
08:00 +13°C° 0 mm 3 mps 769 mmHg 64%
09:00 +15°C° 0 mm 4 mps 769 mmHg 58%
10:00 +17°C° 0 mm 4 mps 769 mmHg 54%
11:00 +18°C° 0 mm 4 mps 769 mmHg 51%
12:00 +20°C° 0 mm 4 mps 769 mmHg 47%
13:00 +20°C° 0 mm 4 mps 769 mmHg 46%
14:00 +21°C° 0 mm 4 mps 769 mmHg 44%
15:00 +21°C° 0 mm 4 mps 769 mmHg 42%
16:00 +20°C° 0 mm 4 mps 769 mmHg 48%
17:00 +18°C° 0 mm 3 mps 769 mmHg 53%
18:00 +17°C° 0 mm 3 mps 769 mmHg 59%
19:00 +16°C° 0 mm 3 mps 769 mmHg 63%
20:00 +14°C° 0 mm 3 mps 769 mmHg 67%
21:00 +13°C° 0 mm 3 mps 770 mmHg 70%
22:00 +12°C° 0 mm 3 mps 770 mmHg 72%
23:00 +11°C° 0 mm 3 mps 770 mmHg 73%

Day after tomorrow, 13 April, Tuesday

Time Temperature Precipitation Wind Pressure Humidity
00:00 +11°C° 0 mm 3 mps 770 mmHg 74%
01:00 +10°C° 0 mm 3 mps 770 mmHg 73%
02:00 +9°C° 0 mm 3 mps 770 mmHg 72%
03:00 +9°C° 0 mm 3 mps 770 mmHg 71%
04:00 +8°C° 0 mm 3 mps 770 mmHg 71%
05:00 +8°C° 0 mm 3 mps 770 mmHg 71%
06:00 +8°C° 0 mm 3 mps 770 mmHg 70%
07:00 +10°C° 0 mm 3 mps 770 mmHg 62%
08:00 +11°C° 0 mm 4 mps 770 mmHg 53%
09:00 +13°C° 0 mm 4 mps 770 mmHg 45%
10:00 +14°C° 0 mm 4 mps 770 mmHg 42%
11:00 +17°C° 0 mm 4 mps 770 mmHg 38%
12:00 +18°C° 0 mm 4 mps 770 mmHg 35%
13:00 +18°C° 0 mm 4 mps 769 mmHg 34%
14:00 +19°C° 0 mm 4 mps 769 mmHg 34%
15:00 +19°C° 0 mm 4 mps 769 mmHg 33%
16:00 +18°C° 0 mm 4 mps 769 mmHg 39%
17:00 +17°C° 0 mm 3 mps 768 mmHg 44%
18:00 +16°C° 0 mm 3 mps 768 mmHg 49%
19:00 +13°C° 0 mm 3 mps 768 mmHg 52%
20:00 +12°C° 0 mm 3 mps 768 mmHg 55%
21:00 +11°C° 0 mm 3 mps 768 mmHg 58%
22:00 +10°C° 0 mm 3 mps 768 mmHg 59%
23:00 +9°C° 0 mm 3 mps 768 mmHg 60%

14 April, Wednesday

Time Temperature Precipitation Wind Pressure Humidity
00:00 +9°C° 0 mm 3 mps 768 mmHg 61%
01:00 +8°C° 0 mm 3 mps 768 mmHg 62%
02:00 +8°C° 0 mm 3 mps 768 mmHg 63%
03:00 +7°C° 0 mm 3 mps 768 mmHg 64%
04:00 +7°C° 0 mm 3 mps 768 mmHg 66%
05:00 +7°C° 0 mm 3 mps 767 mmHg 67%
06:00 +7°C° 0 mm 3 mps 767 mmHg 68%
07:00 +9°C° 0 mm 3 mps 767 mmHg 61%
08:00 +11°C° 0 mm 4 mps 767 mmHg 55%
09:00 +13°C° 0 mm 4 mps 767 mmHg 49%
10:00 +14°C° 0 mm 4 mps 766 mmHg 45%
11:00 +17°C° 0 mm 4 mps 766 mmHg 40%
12:00 +18°C° 0 mm 4 mps 766 mmHg 36%
13:00 +18°C° 0 mm 4 mps 765 mmHg 35%
14:00 +19°C° 0 mm 4 mps 765 mmHg 35%
15:00 +19°C° 0 mm 4 mps 764 mmHg 34%
16:00 +18°C° 0 mm 4 mps 764 mmHg 40%
17:00 +17°C° 0 mm 3 mps 764 mmHg 46%
18:00 +16°C° 0 mm 3 mps 764 mmHg 52%
19:00 +14°C° 0 mm 3 mps 764 mmHg 56%
20:00 +13°C° 0 mm 3 mps 764 mmHg 60%
21:00 +12°C° 0 mm 3 mps 764 mmHg 65%
22:00 +12°C° 0 mm 2 mps 763 mmHg 68%
23:00 +12°C° 0 mm 2 mps 763 mmHg 72%

15 April, Thursday

Time Temperature Precipitation Wind Pressure Humidity
00:00 +10°C° 0 mm 2 mps 763 mmHg 75%
01:00 +10°C° 0 mm 2 mps 763 mmHg 78%
02:00 +10°C° 0 mm 2 mps 762 mmHg 80%
03:00 +9°C° 0 mm 2 mps 762 mmHg 82%
04:00 +9°C° 0 mm 3 mps 762 mmHg 82%
05:00 +9°C° 0 mm 3 mps 762 mmHg 82%
06:00 +9°C° 0 mm 3 mps 762 mmHg 82%
07:00 +11°C° 0 mm 3 mps 761 mmHg 74%
08:00 +13°C° 0 mm 3 mps 761 mmHg 66%
09:00 +16°C° 0 mm 3 mps 761 mmHg 59%
10:00 +17°C° 0 mm 3 mps 761 mmHg 55%
11:00 +18°C° 0 mm 3 mps 760 mmHg 52%
12:00 +19°C° 0 mm 3 mps 760 mmHg 48%
13:00 +19°C° 0 mm 3 mps 759 mmHg 47%
14:00 +20°C° 0 mm 3 mps 759 mmHg 45%
15:00 +20°C° 0 mm 2 mps 759 mmHg 44%
16:00 +19°C° 0 mm 2 mps 758 mmHg 47%
17:00 +18°C° 0 mm 2 mps 758 mmHg 51%
18:00 +18°C° 0 mm 2 mps 758 mmHg 55%
19:00 +16°C° 0 mm 2 mps 758 mmHg 57%
20:00 +15°C° 0 mm 2 mps 758 mmHg 59%
21:00 +14°C° 0 mm 2 mps 757 mmHg 62%
22:00 +14°C° 0 mm 2 mps 757 mmHg 64%
23:00 +13°C° 0 mm 2 mps 757 mmHg 66%

16 April, Friday

Time Temperature Precipitation Wind Pressure Humidity
00:00 +13°C° 0 mm 2 mps 757 mmHg 68%
01:00 +12°C° 0 mm 1 mps 757 mmHg 70%
02:00 +12°C° 0 mm 1 mps 756 mmHg 72%
03:00 +11°C° 0 mm 1 mps 756 mmHg 74%
04:00 +12°C° 0 mm 1 mps 756 mmHg 74%
05:00 +12°C° 0 mm 1 mps 756 mmHg 74%
06:00 +11°C° 0 mm 0 mps 756 mmHg 74%
07:00 +14°C° 0 mm 1 mps 756 mmHg 69%
08:00 +15°C° 0 mm 1 mps 755 mmHg 63%
09:00 +18°C° 0 mm 1 mps 755 mmHg 57%
10:00 +19°C° 0 mm 1 mps 755 mmHg 53%
11:00 +19°C° 0 mm 2 mps 755 mmHg 49%
12:00 +20°C° 0 mm 2 mps 755 mmHg 45%
13:00 +19°C° 0.1 mm 4 mps 755 mmHg 50%
14:00 +17°C° 0.1 mm 6 mps 755 mmHg 55%
15:00 +16°C° 0.1 mm 9 mps 755 mmHg 60%
16:00 +12°C° 0 mm 9 mps 756 mmHg 65%
17:00 +10°C° 0 mm 9 mps 756 mmHg 70%
18:00 +6°C° 0 mm 9 mps 757 mmHg 75%
19:00 +6°C° 0 mm 9 mps 757 mmHg 71%
20:00 +5°C° 0 mm 9 mps 758 mmHg 67%
21:00 +3°C° 0 mm 9 mps 759 mmHg 62%
22:00 +2°C° 0 mm 8 mps 759 mmHg 63%
23:00 +2°C° 0 mm 8 mps 759 mmHg 64%
Show more

We Need Your Consent

Meteoprog and our Service Providers may store and access personal data such as cookies, device identifiers or other similar technologies on your device and process such data to personalise content and ads, as well as provide social media features and to analyse the traffic.

  • Store and/or access information on your device

    Cookies, device identifiers or other information can be stored or accessed on your device for the purposes indicated above.

  • Personalised ads and content, ad and content measurement, audience insights, and products development

    Ads and content can be personalised based on a profile. More data can be added to better personalise ads and content. Ad and content performance can be measured. Insights about the audience who saw the ads and content can be derived. Such data can be used to develop or improve user’s experience, systems and software.

By clicking ‘I Agree’ you will allow the use of indicated cookies, device identifiers, web beacons or other similar technologies. Your settings can be changed in the browser on your device.

For certain purposes, legitimate interests may be relied on, rather than consent. You can read more about this in our Privacy and Cookie Policy.